Location: Rounton
(54.4000°N, 1.3500°W)
Time: 21:52:39
(UTC+00:00)

Explorer 7 - Pass Details

Date: 04 December 2021
Orbit: 483 x 674 km, 50.3° (Epoch: 17 January)

Event Time Altitude Azimuth Distance (km) Brightness Sun altitude
Rises 06:51:06 0° 234° (SW) 2,790 10.1 -10.3°
Reaches altitude 10° 06:53:34 10° 225° (SW) 1,857 9.3 -10.0°
Maximum altitude 06:57:22 33° 161° (SSE) 923 8.5 -9.5°
Drops below altitude 10° 07:00:58 10° 96° (E) 1,761 10.7 -9.0°
Sets 07:03:15 0° 87° (E) 2,622 11.5 -8.7°
